Simultaneous Nadir Overpasses (SNOs) Predictions

Prediction of SNOs between GOES-16 and NPP Satellite Orbit:

Table of predicted SNOs for the next 14.0 days since TLE Epoch: 1/15/2022
Index Date Time (GOES-16) GOES-16 Lat,Lon NPP Lat,Lon Distance(km) Time Diff (sec)
1 01/15/2022 06:32:56 -0.05, -75.19 0.25, -76.50 149.26 80
2 01/16/2022 06:11:30 -0.04, -75.18 -0.73, -71.95 367.46 80
3 01/17/2022 18:33:24 0.04, -75.18 -0.45, -77.25 236.49 80
4 01/18/2022 18:17:18 0.04, -75.18 0.60, -72.72 280.63 80
5 01/20/2022 06:39:04 -0.04, -75.19 0.58, -77.98 318.86 80
6 01/21/2022 06:17:37 -0.04, -75.19 -0.41, -73.44 198.42 80
7 01/22/2022 18:39:31 0.04, -75.19 -0.77, -78.74 404.64 80
8 01/23/2022 18:23:26 0.04, -75.20 0.28, -74.21 113.19 80
9 01/25/2022 06:45:11 -0.04, -75.22 0.90, -79.47 484.92 80
10 01/26/2022 06:23:45 -0.04, -75.22 -0.09, -74.93 32.89 80
11 01/28/2022 18:26:53 0.03, -75.24 -0.08, -75.69 51.70 80
